SCP
0 0 0 0 0 0 0 0 0 0 0 0 0 0 0 0 0 0 0 0 0 0 0 0 0 0 0 0 0 0 0 0 0 0 0 0 0 0 0 0 0 -0 -0
0 0 0 0 0 0 0 0 0 0 0 0 0 0 0 0 0 0 0 0 0 0 0 0 0 0 0 0 0 0 0 0 0 0 0 0 0 0 0 0 0 0 -0
0 0 0 0 0 0 0 0 0 0 0 0 0 0 0 0 0 0 0 0 0 0 0 0 0 0 0 0 0 0 0 0 0 0 0 0 0 0 0 0 0 0 -0
0 0 0 0 0 0 0 0 0 0 0 0 0 0 0 0 0 0 0 0 0 0 0 0 0 0 0 0 0 0 0 0 0 0 0 0 0 0 0 0 0 0 -0
0 0 0 0 0 0 0 0 0 0 0 0 0 0 0 0 0 0 0 0 0 0 0 0 0 0 0 0 0 0 0 0 0 0 0 0 0 0 0 0 0 -0 -0
0 0 0 0 0 0 0 0 0 0 0 0 0 0 0 0 0 0 0 0 0 0 0 0 0 0 0 0 0 0 0 0 0 0 0 0 0 0 0 0 0 -0 -0
0 0 0 0 0 0 0 0 0 0 0 0 0 0 0 0 0 0 0 0 0 0 0 0 0 0 0 0 0 0 0 0 0 0 0 0 0 0 0 0 0 -0 -0
0 0 0 0 0 0 0 0 0 0 0 0 0 0 0 0 0 0 0 0 0 0 0 0 0 0 0 0 0 0 0 0 0 0 0 0 0 0 0 0 0 0 -0
0 0 0 0 0 0 0 0 0 0 0 0 0 0 0 0 0 0 0 0 0 0 0 0 0 0 0 0 0 0 0 0 0 0 0 0 0 0 0 0 0 0 0
0 0 0 0 0 0 0 0 0 0 0 0 0 0 0 0 0 0 0 0 0 0 0 0 0 0 0 0 0 0 0 0 0 0 0 0 0 0 0 0 0 0 0
0 0 0 0 0 0 0 0 0 0 0 0 0 0 0 0 0 0 0 0 0 0 0 0 0 0 0 0 0 0 0 0 0 0 0 0 0 0 0 0 0 0 0
0 0 0 0 0 0 0 0 0 0 0 0 0 0 0 0 0 0 0 0 0 0 0 0 0 0 0 0 0 0 0 0 0 0 0 0 0 0 0 0 0 0 0
0 0 0 0 0 0 0 0 0 0 0 0 0 0 0 0 0 0 0 0 0 0 0 0 0 0 0 0 0 0 0 0 0 0 0 0 0 0 0 0 0 0 0
0 0 0 0 0 0 0 0 0 0 0 0 0 0 0 0 0 0 0 0 0 0 0 0 0 0 0 0 0 0 0 0 0 0 0 0 0 0 0 0 0 0 0
0 0 0 0 0 0 0 0 0 0 0 0 0 0 0 0 0 0 0 0 0 0 0 0 0 0 0 0 0 0 0 0 0 0 0 0 0 0 0 0 0 0 0
0 0 0 0 0 0 0 0 0 0 0 0 0 0 0 0 0 0 0 0 0 0 0 0 0 0 0 0 0 0 0 0 0 0 0 0 0 0 0 0 0 0 0
0 0 0 0 0 0 0 0 0 0 0 0 0 0 0 0 0 0 0 0 0 0 0 0 0 0 0 0 0 0 0 0 0 0 0 0 0 0 0 0 0 0 0
0 0 0 0 0 0 0 0 0 0 0 0 0 0 0 0 0 0 0 0 0 0 0 0 0 0 0 0 0 0 0 0 0 0 0 0 0 0 0 0 0 0 0
0 0 0 0 0 0 0 0 0 0 0 0 0 0 0 0 0 0 0 0 0 0 0 0 0 0 0 0 0 0 0 0 0 0 0 0 0 0 0 0 0 0 0
0 0 0 0 0 0 0 0 0 0 0 0 0 0 0 0 0 0 0 0 0 0 0 0 0 0 0 0 0 0 0 0 0 0 0 0 0 0 0 0 0 0 0
0 0 0 0 0 0 0 0 0 0 0 0 0 0 0 0 0 0 0 0 0 0 0 0 0 0 0 0 0 0 0 0 0 0 0 0 0 0 0 0 0 0 0
0 0 0 0 0 0 0 0 0 0 0 0 0 0 0 0 0 0 0 0 0 0 0 0 0 0 0 0 0 0 0 0 0 0 0 0 0 0 0 0 0 0 0
0 0 0 0 0 0 0 0 0 0 0 0 0 0 0 0 0 0 0 0 0 0 0 0 0 0 0 0 0 0 0 0 0 0 0 0 0 0 0 0 0 0 0
0 0 0 0 0 0 0 0 0 0 0 0 0 0 0 0 0 0 0 0 0 0 0 0 0 0 0 0 0 0 0 0 0 0 0 0 0 0 0 0 0 0 0
0 0 0 0 0 0 0 0 0 0 0 0 0 0 0 0 0 0 0 0 0 0 0 0 0 0 0 0 0 0 0 0 0 0 0 0 0 0 0 0 0 0 0
0 0 0 0 0 -0 0 0 0 -0 -0 -0 0 0 0 0 0 0 0 0 0 0 0 0 0 0 0 0 0 0 0 0 0 0 0 0 0 0 0 0 0 0 0
Wind_Speed
0 0 1 0 0 1 1 1 1 1 1 1 1 1 1 1 1 2 2 2 3 2 2 2 3 2 2 2 2 2 2 2 5 4 2 2 2 3 4 3 3 3 3
0 0 1 1 1 1 0 1 1 1 1 1 1 1 1 1 1 2 3 3 3 3 3 3 3 2 3 2 2 3 3 3 3 5 3 2 3 3 3 4 3 3 3
0 0 0 0 0 0 1 1 1 1 1 1 1 1 1 2 2 2 2 3 3 4 4 4 4 3 4 3 3 3 3 2 2 3 4 3 2 2 3 4 3 3 3
0 1 1 1 1 1 1 1 1 1 1 1 1 2 2 2 2 2 2 3 3 3 3 3 4 4 4 4 3 3 3 3 3 3 3 3 2 2 2 3 3 3 3
1 1 1 1 1 1 0 1 1 1 1 1 1 1 2 2 2 2 3 3 3 3 3 3 4 4 5 4 4 3 3 3 3 3 3 3 3 2 3 2 4 4 4
1 1 1 1 1 1 1 1 1 1 1 1 1 1 2 2 3 4 3 3 3 3 3 3 3 3 4 5 6 6 5 5 4 4 4 4 4 4 3 3 3 3 4
1 1 1 1 1 2 1 1 1 2 1 1 2 2 2 3 4 4 4 3 3 3 3 3 3 3 3 3 4 5 5 7 7 6 6 6 5 4 3 4 4 4 5
1 1 1 1 2 2 1 1 2 2 1 2 2 2 3 4 4 4 4 2 3 3 3 4 4 4 4 4 4 4 4 5 6 5 6 6 5 4 4 4 4 4 4
2 2 2 2 2 2 2 2 2 2 2 2 2 2 3 4 5 5 4 2 2 3 3 3 4 4 6 6 4 4 5 5 6 7 7 7 6 6 4 2 2 2 4
3 3 3 2 2 3 3 3 2 2 3 2 2 2 3 4 5 5 4 2 3 3 3 3 5 6 7 7 5 4 5 5 4 4 4 5 4 4 4 4 3 3 3
3 3 3 3 3 3 3 2 2 2 2 2 3 3 3 3 4 4 4 2 3 3 3 3 3 6 7 7 6 5 6 5 3 3 3 3 2 2 3 3 3 4 4
2 3 3 3 3 2 2 2 2 2 2 2 2 3 2 2 3 4 5 5 4 3 3 3 4 7 7 7 5 5 6 4 2 2 3 3 3 3 3 3 3 4 4
2 3 3 3 2 2 2 2 2 2 2 2 2 3 3 2 3 5 5 5 5 3 3 5 7 7 6 4 5 5 3 2 2 3 4 4 3 3 2 2 2 2 3
2 3 3 3 2 2 2 2 2 3 3 3 3 3 3 3 3 3 3 3 4 3 2 4 6 6 5 4 3 3 2 2 3 3 4 3 2 2 2 2 2 2 2
3 3 3 3 2 2 2 3 4 4 5 5 4 4 4 4 5 7 5 3 3 3 3 2 2 2 2 2 2 2 2 2 2 3 3 3 3 3 2 2 2 2 3
3 3 2 2 2 2 2 3 5 5 7 7 7 6 5 7 8 8 7 7 6 4 2 2 3 3 3 3 3 3 3 3 3 3 3 3 3 3 3 2 2 3 3
4 4 3 3 3 3 3 3 4 4 5 5 6 7 6 7 7 7 6 5 4 2 1 2 3 3 4 4 3 3 4 4 3 3 4 4 3 3 3 3 3 3 3
4 4 4 3 3 4 3 3 3 3 4 4 5 7 7 7 7 6 5 2 2 2 2 3 3 4 4 4 4 4 4 3 3 4 4 4 3 3 3 3 3 4 3
4 3 3 3 3 3 3 3 3 4 4 4 3 4 5 6 6 5 2 1 3 3 3 3 4 4 4 4 4 4 4 4 4 3 4 4 4 4 4 4 4 5 4
3 4 3 3 3 3 3 3 3 3 4 4 4 4 2 2 2 3 2 2 3 4 4 4 4 4 4 4 4 4 4 4 4 4 4 4 4 4 5 5 4 4 4
3 3 3 2 3 3 3 3 3 3 4 4 4 5 6 3 3 4 4 4 4 4 4 4 4 4 4 4 4 4 5 5 4 4 4 4 4 4 4 4 5 4 4
2 2 2 3 3 3 3 3 3 4 4 5 4 4 6 3 3 4 4 4 4 4 4 4 4 4 4 4 4 5 5 5 5 4 4 4 4 4 4 4 4 4 4
2 2 3 3 3 3 3 3 3 4 4 4 4 3 3 3 4 4 4 4 4 4 3 3 4 4 4 4 4 5 6 6 5 4 4 4 4 4 4 5 5 5 5
2 2 3 3 3 3 3 3 3 4 4 4 4 4 4 4 4 5 4 4 4 4 3 3 4 5 7 5 4 5 5 5 5 4 6 5 5 5 4 4 5 6 5
2 3 3 3 3 3 3 4 4 3 4 4 4 4 4 4 4 4 4 4 4 4 5 4 4 5 6 7 6 6 7 8 7 5 5 5 5 5 5 5 5 5 5
3 3 3 3 3 3 4 4 4 4 4 4 4 4 4 4 4 4 4 4 4 4 4 4 5 6 7 6 7 8 9 9 8 7 5 4 5 5 5 5 5 5 5
Wind_Direction
69 123 102 84 76 94 131 139 150 162 164 174 199 199 201 217 214 206 218 219 214 225 235 232 247 253 249 251 250 251 252 248 262 279 281 297 282 285 303 298 292 289 293
240 139 123 116 98 100 142 158 155 158 167 183 197 206 218 220 221 221 229 224 219 225 232 235 246 245 246 247 244 248 250 251 256 273 282 282 276 275 286 286 292 286 283
194 130 138 140 154 207 265 239 167 165 176 184 185 208 225 226 224 234 235 237 235 233 232 233 243 240 248 251 249 249 252 262 261 265 277 282 280 280 292 293 290 284 279
202 181 212 235 235 229 256 283 239 192 183 204 215 219 226 228 232 238 244 246 248 252 248 243 241 235 240 243 248 248 249 254 261 265 273 283 282 284 281 294 303 300 290
238 219 246 263 265 254 259 284 266 215 213 220 226 236 236 232 236 238 244 248 249 255 257 254 253 254 256 251 250 245 244 245 251 263 268 274 274 277 271 285 291 302 295
274 261 284 293 283 271 270 275 270 248 239 241 239 241 254 262 273 272 267 251 251 252 261 267 266 260 269 272 271 267 259 250 250 254 259 259 264 267 273 273 285 295 288
295 284 283 275 272 271 274 279 267 257 246 255 254 243 252 264 274 275 276 268 254 249 252 261 273 273 266 265 273 278 273 270 260 253 255 255 256 249 249 260 260 267 271
305 291 279 267 269 276 269 267 276 269 253 256 257 253 260 267 277 278 278 264 256 258 253 251 257 264 263 267 263 263 266 270 266 258 253 258 257 244 230 244 256 277 288
309 294 287 268 265 270 267 269 269 269 261 259 261 254 260 277 282 281 282 260 262 268 267 261 258 259 269 275 266 264 269 275 285 276 272 271 268 259 247 238 237 255 277
301 298 293 282 259 255 258 262 266 268 263 269 271 257 254 268 278 280 279 257 262 269 273 268 262 267 271 272 260 255 263 272 281 286 284 284 274 251 245 231 221 233 257
306 308 301 289 271 255 255 258 261 267 273 269 271 274 267 268 275 280 280 276 258 266 271 272 269 278 280 278 274 260 264 276 275 270 272 272 268 248 242 243 238 232 236
316 309 302 295 286 269 263 271 270 261 265 269 280 286 284 284 283 281 285 291 294 274 270 274 279 287 289 287 284 281 282 283 266 261 258 258 257 253 252 251 250 252 250
315 301 298 293 287 279 260 259 267 252 248 259 264 271 287 295 290 294 285 286 290 288 277 284 292 293 297 293 288 290 286 262 252 253 252 255 255 254 253 255 255 256 268
289 293 297 296 293 284 269 252 245 242 243 248 252 260 273 278 276 277 271 273 281 289 290 289 293 292 296 295 291 289 276 256 249 254 258 263 264 247 242 239 240 245 268
286 289 292 288 277 273 263 248 252 243 241 249 244 241 249 262 266 282 287 278 273 277 304 306 304 301 289 285 281 274 270 263 257 258 258 255 255 249 244 237 230 230 237
278 281 278 281 275 267 272 290 279 276 279 274 269 264 263 269 281 281 286 290 293 297 315 273 272 269 265 265 265 269 262 259 259 261 255 248 245 243 245 237 228 228 240
253 263 264 263 262 259 256 263 289 300 291 284 281 281 282 286 285 281 283 290 287 291 282 257 260 263 267 266 261 260 262 262 259 257 250 245 242 239 237 236 233 234 240
255 256 254 252 251 250 248 251 254 265 287 291 292 291 294 294 290 287 286 299 281 266 247 248 256 260 263 264 263 262 264 264 260 252 242 240 236 231 231 233 228 227 240
253 254 252 253 252 250 250 249 249 248 258 275 293 295 293 298 302 296 286 230 238 252 253 253 254 256 261 261 263 262 259 259 260 245 237 236 234 229 231 232 230 228 231
255 263 265 257 256 252 246 244 245 247 253 259 263 273 281 282 275 267 249 244 243 250 252 253 255 254 257 260 263 263 261 259 254 239 237 235 231 230 231 232 229 227 231
259 266 264 259 254 254 251 247 246 248 254 259 262 268 272 259 252 252 254 251 247 250 252 253 253 255 256 259 262 261 259 260 252 239 235 235 231 232 231 228 229 228 232
256 256 253 252 255 256 256 251 247 247 252 260 274 280 280 275 261 260 260 261 261 258 254 255 258 255 250 250 256 261 260 258 255 243 236 235 232 234 233 228 229 228 227
253 261 266 266 260 257 258 256 252 249 252 256 262 268 266 260 259 260 263 267 269 269 265 258 262 267 266 262 258 255 258 258 255 248 243 240 238 235 232 231 230 229 229
259 259 263 267 267 262 260 261 259 256 254 257 258 259 261 262 264 266 267 269 269 270 267 261 258 262 266 269 265 260 259 260 258 249 240 240 244 241 233 231 233 231 232
269 264 264 264 264 266 266 266 263 263 260 258 260 263 266 268 269 271 271 270 270 270 270 268 266 265 266 268 270 269 267 266 262 253 244 238 240 241 238 235 233 234 236
277 274 273 272 266 262 263 265 265 265 264 264 264 264 266 268 270 272 273 271 274 275 277 275 271 271 274 274 273 273 269 265 258 250 233 226 229 234 233 236 235 236 237